Weather History for Valparaiso, IN

Change the Weather History Date:

Tuesday, February 19, 2013

  Actual Average Record
Temperature  
Mean Temperature 24 °F 29 °F  
Max Temperature 34 °F 36 °F 46 °F (2002)
Min Temperature 14 °F 21 °F 0 °F (2006)
Degree Days  
Heating Degree Days 41 36  
Month to date heating degree days 703 737  
Since 1 July heating degree days 4064 4422  
Cooling Degree Days 0 0  
Month to date cooling degree days 0 0  
Year to date cooling degree days 0 0  
Moisture  
Dew Point 11 °F    
Average Humidity 76    
Maximum Humidity 93    
Minimum Humidity 68    
Precipitation  
Precipitation T in 0.06 in 0.66 in (2002)
Month to date precipitation 0.59 0.95  
Year to date precipitation 2.88 2.70  
Sea Level Pressure  
Sea Level Pressure 29.92 in    
Wind  
Wind Speed 21 mph (West)    
Max Wind Speed 32 mph    
Max Gust Speed 43 mph    
Visibility 6 miles    
Events Snow    
T = Trace of Precipitation, MM = Missing Value Source: NWS Daily Summary

Daily Weather History Graph

Daily Weather History Graph

Search for Another Location

Airport:

Trip Planner

Search our weather history database for the weather conditions in past years. The results will help you decide how hot, cold, wet, or windy it might be!

Date:

Astronomy

Feb. 19, 2013 Rise Set
Actual Time 6:37 AM CST 5:27 PM CST
Civil Twilight 6:09 AM CST 5:55 PM CST
Nautical Twilight 5:36 AM CST 6:27 PM CST
Astronomical Twilight 5:04 AM CST 6:59 PM CST
Moon 11:56 AM CST (2/19) 2:10 AM CST (2/19)
Length of Visible Light 11h 46m
Length of Day
10h 49m
Waxing Gibbous, 67% of the Moon is Illuminated
Feb 19
Waxing Gibbous
Feb 25
Full
Mar 4
Last Quarter
Mar 11
New
Mar 19
First Quarter

Hourly Weather History & Observations

Time (CST) Temp. Windchill Dew Point Humidity Pressure Visibility Wind Dir Wind Speed Gust Speed Precip Events Conditions
12:53 AM 32.0 °F 19.5 °F 28.9 °F 88% 29.59 in 7.0 mi West 21.9 mph 31.1 mph 0.00 in   Overcast
1:01 AM 30.2 °F 16.8 °F 28.4 °F 93% 29.58 in 8.0 mi West 23.0 mph 32.2 mph N/A   Overcast
1:53 AM 28.0 °F 13.6 °F 24.1 °F 85% 29.64 in 10.0 mi WSW 24.2 mph 36.8 mph N/A   Overcast
2:53 AM 25.0 °F 8.4 °F 21.0 °F 85% 29.68 in 10.0 mi West 28.8 mph 36.8 mph N/A   Overcast
3:53 AM 23.0 °F 5.7 °F 19.0 °F 85% 29.69 in 10.0 mi WSW 28.8 mph 36.8 mph N/A   Overcast
4:53 AM 21.0 °F 5.0 °F 16.0 °F 81% 29.72 in 8.0 mi WSW 21.9 mph 32.2 mph 0.00 in Snow Light Snow
5:06 AM 21.2 °F 3.0 °F 15.8 °F 80% 29.71 in 9.0 mi WSW 29.9 mph 38.0 mph 0.00 in Snow Light Snow
5:53 AM 19.9 °F 3.2 °F 15.1 °F 81% 29.74 in 5.0 mi West 23.0 mph 31.1 mph 0.00 in Snow Light Snow
6:53 AM 18.0 °F 0.2 °F 12.0 °F 78% 29.77 in 8.0 mi WSW 24.2 mph 32.2 mph 0.00 in Snow Light Snow
7:53 AM 17.1 °F -1.0 °F 10.0 °F 74% 29.80 in 10.0 mi West 24.2 mph 32.2 mph 0.00 in Snow Light Snow
8:07 AM 17.6 °F -0.3 °F 8.6 °F 68% 29.78 in 8.0 mi West 24.2 mph 36.8 mph 0.00 in Snow Light Snow
8:34 AM 15.8 °F -2.7 °F 10.4 °F 79% 29.80 in 1.8 mi WSW 24.2 mph 34.5 mph 0.00 in Snow Light Snow
8:42 AM 15.8 °F -3.7 °F 8.6 °F 73% 29.80 in 3.0 mi WSW 27.6 mph 35.7 mph 0.00 in Snow Light Snow
8:53 AM 17.1 °F 0.6 °F 10.0 °F 74% 29.83 in 7.0 mi West 19.6 mph 31.1 mph 0.00 in Snow Light Snow
9:53 AM 16.0 °F -3.2 °F 9.0 °F 74% 29.85 in 2.0 mi West 26.5 mph 34.5 mph 0.00 in Snow Light Snow
10:04 AM 15.8 °F -2.3 °F 8.6 °F 73% 29.83 in 8.0 mi West 23.0 mph 35.7 mph 0.00 in Snow Light Snow
10:53 AM 17.1 °F -0.6 °F 8.1 °F 68% 29.88 in 8.0 mi West 23.0 mph 34.5 mph 0.00 in Snow Light Snow
12:53 PM 16.0 °F -2.1 °F 8.1 °F 71% 29.92 in 5.0 mi West 23.0 mph 32.2 mph 0.00 in Snow Light Snow
1:53 PM 17.1 °F 1.0 °F 9.0 °F 71% 29.95 in 6.0 mi West 18.4 mph 26.5 mph 0.00 in Snow Light Snow
2:53 PM 16.0 °F -2.5 °F 8.1 °F 71% 29.98 in 3.0 mi West 24.2 mph 29.9 mph 0.00 in Snow Light Snow
3:53 PM 16.0 °F -0.4 °F 8.1 °F 71% 30.01 in 10.0 mi West 18.4 mph 27.6 mph 0.00 in   Overcast
4:53 PM 16.0 °F -0.4 °F 7.0 °F 68% 30.05 in 10.0 mi West 18.4 mph 27.6 mph N/A   Overcast
6:53 PM 16.0 °F 0.6 °F 8.1 °F 71% 30.09 in 6.0 mi West 16.1 mph 24.2 mph 0.00 in Snow Light Snow
7:53 PM 16.0 °F 0.6 °F 7.0 °F 68% 30.11 in 9.0 mi WNW 16.1 mph 25.3 mph 0.00 in   Overcast
8:21 PM 15.8 °F 2.7 °F 8.6 °F 73% 30.07 in 6.0 mi WNW 11.5 mph - 0.00 in Snow Light Snow
8:53 PM 15.1 °F 0.5 °F 8.1 °F 74% 30.13 in 2.0 mi WNW 13.8 mph 23.0 mph 0.00 in Snow Light Snow
9:12 PM 15.8 °F 2.1 °F 8.6 °F 73% 30.10 in 3.0 mi WNW 12.7 mph - 0.00 in Snow Light Snow
9:35 PM 14.0 °F -0.2 °F 8.6 °F 79% 30.10 in 2.5 mi WNW 12.7 mph 23.0 mph 0.00 in Snow Light Snow
9:38 PM 15.8 °F 2.7 °F 8.6 °F 73% 30.10 in 3.0 mi WNW 11.5 mph 18.4 mph 0.00 in Snow Light Snow
9:53 PM 14.0 °F -2.5 °F 8.1 °F 77% 30.15 in 5.0 mi WNW 17.3 mph 23.0 mph 0.00 in Snow Light Snow
10:07 PM 14.0 °F -1.4 °F 8.6 °F 79% 30.11 in 2.5 mi WNW 15.0 mph - 0.00 in Snow Light Snow
10:20 PM 14.0 °F -0.2 °F 8.6 °F 79% 30.11 in 3.0 mi West 12.7 mph - 0.00 in Snow Light Snow
10:33 PM 14.0 °F -0.8 °F 6.8 °F 73% 30.12 in 4.0 mi WNW 13.8 mph - 0.00 in Snow Light Snow
10:53 PM 14.0 °F -2.5 °F 6.1 °F 71% 30.16 in 7.0 mi West 17.3 mph 25.3 mph 0.00 in Snow Light Snow
11:15 PM 14.0 °F -0.2 °F 6.8 °F 73% 30.12 in 9.0 mi West 12.7 mph - 0.00 in Snow Light Snow
11:53 PM 14.0 °F -0.8 °F 6.1 °F 71% 30.17 in 8.0 mi WNW 13.8 mph - 0.00 in Snow Light Snow